| time (UTC) | temp F | wind direction | speed MPH | gust MPH | rain 1hr in | rain 24hr in | rain mn in | humidity % | barometer mb |
| 20260906024533 | 63 | 0 | 0.0 | 0.0 | 0.00 | 0.00 | 0.00 | 89 | 1012.3 |
| 20260906023042 | 64 | 0 | 0.0 | 0.0 | 0.00 | 0.00 | 0.00 | 89 | 1012.3 |
| 20260906021532 | 64 | 0 | 0.0 | 0.0 | 0.00 | 0.00 | 0.00 | 89 | 1012.3 |
| 20260906020033 | 64 | 0 | 0.0 | 0.0 | 0.00 | 0.00 | 0.00 | 88 | 1012.3 |
| 20260906014539 | 64 | 0 | 0.0 | 0.0 | 0.00 | 0.00 | 0.00 | 87 | 1012.2 |
| 20260906013033 | 65 | 0 | 0.0 | 0.0 | 0.00 | 0.00 | 0.00 | 86 | 1012.2 |
| 20260906011534 | 65 | 0 | 0.0 | 0.0 | 0.00 | 0.00 | 0.00 | 86 | 1012.0 |
| 20260906010033 | 66 | 0 | 0.0 | 0.0 | 0.00 | 0.00 | 0.00 | 86 | 1011.9 |
| 20260906004531 | 66 | 0 | 0.0 | 0.0 | 0.00 | 0.00 | 0.00 | 86 | 1011.7 |
| 20260906003031 | 67 | 0 | 0.0 | 0.0 | 0.00 | 0.00 | 0.00 | 85 | 1011.6 |
| 20260906001533 | 67 | 0 | 0.0 | 0.0 | 0.00 | 0.00 | 0.00 | 84 | 1011.3 |
| 20260906000035 | 68 | 0 | 0.0 | 0.0 | 0.00 | 0.00 | 0.00 | 83 | 1011.1 |
| 20260905234535 | 69 | 0 | 0.0 | 0.0 | 0.00 | 0.00 | 0.00 | 80 | 1010.8 |
| 20260905233046 | 70 | 0 | 0.0 | 0.0 | 0.00 | 0.00 | 0.00 | 79 | 1010.7 |
| 20260905231548 | 71 | 0 | 0.0 | 0.0 | 0.00 | 0.00 | 0.00 | 79 | 1010.8 |
| 20260905230032 | 72 | 0 | 0.0 | 0.0 | 0.00 | 0.00 | 0.00 | 76 | 1010.7 |
| 20260905224534 | 73 | 0 | 0.0 | 0.0 | 0.00 | 0.00 | 0.00 | 73 | 1010.5 |
| 20260905223035 | 73 | 0 | 0.0 | 0.0 | 0.00 | 0.00 | 0.00 | 72 | 1010.7 |
| 20260905221538 | 74 | 0 | 0.0 | 0.0 | 0.00 | 0.00 | 0.00 | 70 | 1010.4 |
| 20260905220033 | 74 | 0 | 0.0 | 1.0 | 0.00 | 0.00 | 0.00 | 69 | 1010.3 |
| 20260905214536 | 75 | 0 | 0.0 | 0.0 | 0.00 | 0.00 | 0.00 | 69 | 1010.4 |
| 20260905213036 | 75 | 0 | 0.0 | 0.0 | 0.00 | 0.00 | 0.00 | 65 | 1010.4 |
| 20260905211534 | 76 | 0 | 0.0 | 0.0 | 0.00 | 0.00 | 0.00 | 63 | 1010.4 |
| 20260905210034 | 77 | 0 | 0.0 | 6.0 | 0.00 | 0.00 | 0.00 | 60 | 1010.3 |
| 20260905204533 | 77 | 0 | 0.0 | 3.0 | 0.00 | 0.00 | 0.00 | 59 | 1010.3 |
| 20260905203038 | 77 | 0 | 0.0 | 2.0 | 0.00 | 0.00 | 0.00 | 58 | 1010.3 |
| 20260905201535 | 77 | 0 | 0.0 | 2.0 | 0.00 | 0.00 | 0.00 | 57 | 1010.3 |
| 20260905200033 | 75 | 81 | 0.0 | 6.0 | 0.00 | 0.00 | 0.00 | 62 | 1010.4 |
| 20260905194531 | 76 | 0 | 0.0 | 2.0 | 0.00 | 0.00 | 0.00 | 65 | 1010.7 |
| 20260905193032 | 77 | 0 | 0.0 | 3.0 | 0.00 | 0.00 | 0.00 | 60 | 1010.8 |
| 20260905191533 | 77 | 0 | 0.0 | 5.0 | 0.00 | 0.00 | 0.00 | 62 | 1010.8 |
| 20260905190041 | 76 | 0 | 0.0 | 3.0 | 0.00 | 0.00 | 0.00 | 62 | 1010.8 |
| 20260905184532 | 76 | 0 | 0.0 | 6.0 | 0.00 | 0.00 | 0.00 | 65 | 1010.9 |
| 20260905183033 | 77 | 0 | 0.0 | 4.0 | 0.00 | 0.00 | 0.00 | 60 | 1011.0 |
| 20260905181534 | 77 | 74 | 0.0 | 3.0 | 0.00 | 0.00 | 0.00 | 64 | 1010.9 |
| 20260905180031 | 78 | 0 | 0.0 | 6.0 | 0.00 | 0.00 | 0.00 | 57 | 1011.0 |
| 20260905174535 | 78 | 0 | 0.0 | 5.0 | 0.00 | 0.00 | 0.00 | 61 | 1011.0 |
| 20260905173038 | 78 | 284 | 1.0 | 4.0 | 0.00 | 0.00 | 0.00 | 58 | 1011.0 |
| 20260905171531 | 77 | 0 | 0.0 | 7.0 | 0.00 | 0.00 | 0.00 | 59 | 1011.0 |
| 20260905170032 | 77 | 0 | 0.0 | 8.0 | 0.00 | 0.00 | 0.00 | 60 | 1011.1 |
| 20260905164533 | 76 | 269 | 0.0 | 6.0 | 0.00 | 0.00 | 0.00 | 59 | 1011.3 |
| 20260905163033 | 76 | 253 | 0.0 | 8.0 | 0.00 | 0.00 | 0.00 | 62 | 1011.6 |
| 20260905161534 | 76 | 0 | 2.0 | 10.0 | 0.00 | 0.00 | 0.00 | 61 | 1011.5 |
| 20260905160031 | 75 | 70 | 0.0 | 4.0 | 0.00 | 0.00 | 0.00 | 62 | 1011.7 |
| 20260905154531 | 75 | 0 | 0.0 | 4.0 | 0.00 | 0.00 | 0.00 | 66 | 1011.6 |
| 20260905153036 | 75 | 0 | 0.0 | 9.0 | 0.00 | 0.00 | 0.00 | 65 | 1011.7 |
| 20260905151535 | 75 | 0 | 0.0 | 7.0 | 0.00 | 0.00 | 0.00 | 65 | 1011.5 |
| 20260905150031 | 75 | 294 | 1.0 | 6.0 | 0.00 | 0.00 | 0.00 | 66 | 1011.5 |
| 20260905144535 | 74 | 0 | 0.0 | 8.0 | 0.00 | 0.00 | 0.00 | 65 | 1011.3 |
| 20260905143034 | 74 | 0 | 0.0 | 7.0 | 0.00 | 0.00 | 0.00 | 66 | 1011.5 |
| 20260905141541 | 73 | 298 | 1.0 | 6.0 | 0.00 | 0.00 | 0.00 | 68 | 1011.5 |
| 20260905140034 | 73 | 0 | 0.0 | 8.0 | 0.00 | 0.00 | 0.00 | 70 | 1011.4 |
| 20260905134535 | 73 | 0 | 0.0 | 5.0 | 0.00 | 0.00 | 0.00 | 71 | 1011.4 |
| 20260905133034 | 72 | 0 | 0.0 | 0.0 | 0.00 | 0.00 | 0.00 | 77 | 1011.3 |
| 20260905131545 | 71 | 0 | 0.0 | 0.0 | 0.00 | 0.00 | 0.00 | 79 | 1011.3 |
| 20260905130035 | 70 | 0 | 0.0 | 0.0 | 0.00 | 0.00 | 0.00 | 81 | 1011.4 |
| 20260905124544 | 69 | 0 | 0.0 | 0.0 | 0.00 | 0.00 | 0.00 | 84 | 1011.4 |
| 20260905123042 | 69 | 0 | 0.0 | 0.0 | 0.00 | 0.00 | 0.00 | 87 | 1011.6 |
| 20260905121534 | 68 | 0 | 0.0 | 0.0 | 0.00 | 0.00 | 0.00 | 87 | 1011.6 |
| 20260905120034 | 68 | 0 | 0.0 | 0.0 | 0.00 | 0.00 | 0.00 | 87 | 1011.7 |
| 20260905114541 | 68 | 0 | 0.0 | 0.0 | 0.00 | 0.00 | 0.00 | 87 | 1011.5 |
| 20260905113039 | 68 | 0 | 0.0 | 0.0 | 0.00 | 0.00 | 0.00 | 87 | 1011.3 |
| 20260905111540 | 68 | 0 | 0.0 | 0.0 | 0.00 | 0.00 | 0.00 | 86 | 1011.2 |
| 20260905110031 | 68 | 0 | 0.0 | 0.0 | 0.00 | 0.00 | 0.00 | 86 | 1011.1 |
| 20260905104530 | 68 | 0 | 0.0 | 0.0 | 0.00 | 0.00 | 0.00 | 86 | 1010.9 |
| 20260905103033 | 68 | 0 | 0.0 | 0.0 | 0.00 | 0.00 | 0.00 | 85 | 1010.7 |
| 20260905101539 | 68 | 0 | 0.0 | 0.0 | 0.00 | 0.00 | 0.00 | 85 | 1010.6 |
| 20260905100034 | 69 | 0 | 0.0 | 0.0 | 0.00 | 0.00 | 0.00 | 85 | 1010.6 |
| 20260905094531 | 69 | 0 | 0.0 | 0.0 | 0.00 | 0.00 | 0.00 | 86 | 1010.5 |
| 20260905093035 | 69 | 0 | 0.0 | 0.0 | 0.00 | 0.00 | 0.00 | 85 | 1010.7 |
| 20260905091531 | 70 | 0 | 0.0 | 0.0 | 0.00 | 0.00 | 0.00 | 84 | 1010.6 |
| 20260905090035 | 70 | 0 | 0.0 | 0.0 | 0.00 | 0.00 | 0.00 | 83 | 1010.5 |
| 20260905084556 | 70 | 0 | 0.0 | 0.0 | 0.00 | 0.00 | 0.00 | 81 | 1010.5 |
| 20260905083031 | 70 | 0 | 0.0 | 0.0 | 0.00 | 0.00 | 0.00 | 80 | 1010.3 |
| 20260905081531 | 70 | 0 | 0.0 | 0.0 | 0.00 | 0.00 | 0.00 | 81 | 1010.1 |
| 20260905080034 | 70 | 0 | 0.0 | 0.0 | 0.00 | 0.00 | 0.00 | 82 | 1010.3 |
| 20260905074533 | 70 | 0 | 0.0 | 0.0 | 0.00 | 0.00 | 0.00 | 85 | 1010.4 |
| 20260905073035 | 70 | 0 | 0.0 | 0.0 | 0.00 | 0.00 | 0.00 | 84 | 1010.3 |
| 20260905071531 | 70 | 0 | 0.0 | 0.0 | 0.00 | 0.00 | 0.00 | 85 | 1010.6 |
| 20260905070033 | 70 | 0 | 0.0 | 0.0 | 0.00 | 0.00 | 0.00 | 87 | 1010.6 |
| 20260905064532 | 70 | 0 | 0.0 | 0.0 | 0.00 | 0.00 | 0.00 | 86 | 1010.5 |
| 20260905063032 | 70 | 0 | 0.0 | 0.0 | 0.00 | 0.00 | 0.00 | 86 | 1010.6 |
| 20260905061533 | 71 | 0 | 0.0 | 0.0 | 0.00 | 0.00 | 0.00 | 87 | 1010.6 |
| 20260905060035 | 71 | 0 | 0.0 | 0.0 | 0.00 | 0.00 | 0.00 | 88 | 1010.7 |
| 20260905054531 | 71 | 0 | 0.0 | 0.0 | 0.00 | 0.02 | 0.00 | 89 | 1010.8 |
| 20260905053032 | 71 | 0 | 0.0 | 0.0 | 0.00 | 0.02 | 0.00 | 89 | 1011.0 |
| 20260905051537 | 71 | 0 | 0.0 | 0.0 | 0.00 | 0.02 | 0.00 | 88 | 1011.3 |
| 20260905050034 | 71 | 0 | 0.0 | 0.0 | 0.00 | 0.02 | 0.00 | 88 | 1011.2 |
| 20260905044535 | 72 | 0 | 0.0 | 0.0 | 0.00 | 0.02 | 0.00 | 88 | 1011.1 |
| 20260905043033 | 72 | 0 | 0.0 | 0.0 | 0.00 | 0.02 | 0.00 | 90 | 1011.2 |
| 20260905041536 | 72 | 0 | 0.0 | 0.0 | 0.00 | 0.02 | 0.00 | 90 | 1011.3 |
| 20260905040034 | 72 | 0 | 0.0 | 0.0 | 0.00 | 0.02 | 0.00 | 90 | 1011.4 |
| 20260905034539 | 72 | 0 | 0.0 | 0.0 | 0.00 | 0.02 | 0.02 | 91 | 1011.4 |
| 20260905033033 | 72 | 0 | 0.0 | 0.0 | 0.00 | 0.02 | 0.02 | 91 | 1011.4 |
| 20260905031537 | 73 | 0 | 0.0 | 0.0 | 0.00 | 0.02 | 0.02 | 91 | 1011.3 |
| 20260905030037 | 73 | 0 | 0.0 | 0.0 | 0.00 | 0.02 | 0.02 | 90 | 1011.3 |